Wind_Speed
8 6 7 11 13 14 15 19 21 25 22 27 23 28 27 28 23 22 24 24 23 24 25 26 28 28 23 21 27 31 32 32 30 34 34 37 37 45 54 55 54 50 41
8 7 9 10 10 13 16 16 26 28 37 41 33 29 28 31 28 26 24 25 26 27 26 26 29 31 32 34 33 31 33 34 35 34 38 40 43 49 52 56 55 52 46
9 10 11 14 18 21 24 26 29 34 34 36 42 35 40 32 32 30 26 22 27 30 31 29 31 34 34 33 32 36 37 37 38 37 35 41 49 53 55 52 52 51 48
15 15 16 19 22 27 28 31 31 36 42 44 52 46 37 31 29 35 29 30 30 33 36 36 35 32 37 36 39 41 43 46 40 37 39 47 54 57 52 49 47 50 47
23 21 16 20 23 26 29 33 38 37 44 47 50 51 40 33 22 21 30 31 33 38 42 37 34 32 38 39 40 37 33 37 42 42 43 52 57 56 49 46 45 47 44
24 16 21 23 24 29 30 38 40 41 45 46 42 42 34 32 21 27 30 33 36 38 37 33 30 32 39 37 33 34 46 51 44 44 46 55 54 52 49 46 45 43 38
23 21 23 29 31 34 35 38 45 48 47 45 45 38 39 43 46 32 30 29 30 37 32 27 24 28 28 31 33 38 44 44 46 42 48 54 52 51 50 47 43 41 38
25 25 28 32 36 39 39 42 47 49 52 48 43 44 44 45 45 42 32 29 30 35 26 21 25 30 36 37 45 42 45 46 47 48 52 56 54 52 50 45 41 39 40
30 29 30 36 39 45 46 49 45 50 48 48 46 49 49 45 44 35 33 39 24 23 27 32 39 44 39 43 45 47 49 49 47 49 52 52 51 49 48 41 42 40 40
31 34 38 42 42 47 41 52 51 47 49 51 51 53 45 44 43 33 27 37 40 29 29 34 36 39 42 42 46 49 49 49 49 54 52 48 45 45 45 45 42 39 35
35 38 43 45 48 55 51 51 50 51 51 48 46 45 42 40 43 38 30 30 32 34 39 36 38 37 37 42 46 47 47 50 51 51 45 43 43 42 41 35 30 30 31
43 45 48 52 55 54 46 44 50 52 48 44 43 34 38 39 42 39 43 32 42 37 35 37 35 35 38 41 44 47 49 50 50 45 40 39 39 37 35 33 30 30 35
45 46 52 58 61 61 56 52 53 45 42 41 34 41 40 40 44 41 43 50 31 27 32 34 38 40 41 44 50 49 49 46 41 39 38 37 37 36 34 35 34 34 35
47 51 52 59 61 61 54 52 48 47 42 43 41 44 42 45 45 43 42 43 40 35 36 44 44 43 44 45 43 45 43 39 36 35 34 34 34 34 32 32 30 29 30
49 53 55 54 57 55 50 49 50 50 46 45 45 44 47 47 43 42 41 41 38 38 43 43 42 43 42 42 40 40 38 36 35 32 31 31 32 32 32 32 30 28 30
54 52 48 50 46 45 47 48 49 49 48 46 44 44 44 44 45 43 41 43 41 42 43 44 44 43 40 39 41 38 36 33 31 31 29 30 30 30 30 30 29 28 28
46 44 50 48 46 46 47 49 50 50 49 49 48 45 41 36 36 38 40 40 38 40 41 42 41 40 38 39 38 35 33 31 30 29 29 29 29 29 28 27 26 27 26
46 49 52 51 50 49 48 48 47 47 47 46 44 40 37 35 36 35 36 35 33 36 34 33 32 33 33 34 34 32 31 30 29 29 29 28 27 27 25 24 24 24 24
51 51 50 49 50 48 45 45 46 47 43 41 40 34 34 35 36 35 31 29 30 29 28 28 29 30 31 31 30 29 29 29 28 27 25 24 24 25 23 22 22 23 22
45 45 46 45 44 44 45 47 42 41 42 38 35 34 35 34 32 29 26 27 27 28 29 30 29 27 27 28 27 27 26 25 22 21 21 21 21 22 21 21 22 22 22
43 40 41 43 45 46 44 39 42 38 37 36 37 38 34 32 27 25 26 28 31 34 32 30 28 26 25 23 22 22 22 20 19 20 21 22 23 24 24 22 22 22 22
39 41 43 42 38 37 38 37 38 39 37 34 33 30 29 23 25 26 27 28 28 27 26 25 25 25 23 21 21 22 23 22 22 22 23 23 24 25 24 23 22 22 22
42 40 38 38 38 40 42 41 37 32 32 27 24 23 23 23 23 23 25 24 24 24 24 24 24 23 23 23 24 24 22 22 22 23 24 25 25 26 26 25 24 22 21
38 38 38 37 36 34 31 31 31 27 23 21 22 24 22 20 23 25 25 23 23 23 25 26 24 23 23 22 22 21 21 22 23 24 23 23 21 21 21 22 21 21 19
34 33 32 29 29 29 27 24 22 22 22 24 23 22 18 22 23 22 22 22 23 23 23 24 24 24 24 24 22 21 21 22 24 23 22 21 20 19 20 20 19 19 19
28 27 26 27 27 25 22 21 22 22 23 23 21 19 21 22 21 20 21 21 22 22 21 22 24 24 23 23 22 19 20 21 20 21 19 16 16 18 17 16 16 17 17
Wind_Direction
217 237 279 292 306 314 311 309 297 296 298 310 287 286 281 275 275 280 288 292 299 303 299 295 291 290 284 286 295 305 306 304 300 302 295 295 298 297 295 295 294 295 293
236 273 288 291 315 319 310 319 308 304 310 302 282 287 281 276 280 284 289 287 299 302 296 297 289 280 287 286 299 299 299 303 296 298 301 300 300 297 298 296 294 293 289
258 261 282 297 309 309 313 313 306 317 310 315 292 291 290 287 280 285 292 287 291 291 296 293 293 284 283 284 288 293 301 305 303 301 299 296 299 298 297 295 293 292 289
266 275 287 302 306 310 325 321 306 308 316 321 320 285 279 272 276 281 286 291 291 296 292 291 289 281 276 278 283 292 292 303 304 298 296 296 298 300 302 298 295 292 293
269 275 296 295 304 309 317 319 309 311 314 316 318 306 304 265 269 269 276 288 303 297 293 287 284 285 277 283 289 290 298 300 302 295 291 294 297 302 302 299 295 296 292
270 278 287 296 297 304 310 319 313 313 310 311 309 313 325 323 287 285 271 275 292 290 292 281 281 283 293 291 291 294 299 297 288 289 295 294 300 302 301 301 297 293 287
271 278 294 297 299 305 308 308 316 318 311 313 309 313 309 312 303 279 275 280 277 289 292 286 298 301 286 286 292 294 297 294 294 291 293 297 301 303 304 301 299 288 289
283 282 292 302 310 304 304 304 301 305 306 310 305 305 306 300 299 288 283 280 281 291 273 288 296 292 285 286 294 294 299 292 290 292 292 294 298 301 301 302 297 286 287
290 284 293 301 301 309 301 307 297 303 299 302 302 302 299 302 301 291 289 288 272 292 280 297 302 302 292 288 294 293 295 293 292 292 295 295 297 298 301 300 296 291 287
292 290 290 292 298 297 302 303 299 302 304 301 303 307 302 296 288 281 296 295 270 277 291 311 289 290 288 287 289 288 292 291 291 295 295 295 297 301 302 301 297 293 296
286 287 289 294 301 299 292 299 294 299 302 299 300 305 301 298 296 293 285 282 281 296 306 301 298 288 287 288 286 290 290 290 291 294 296 301 305 304 302 305 306 304 302
284 287 288 293 294 298 289 292 296 300 299 298 303 291 303 301 303 291 292 280 314 314 300 293 291 287 282 286 289 288 289 291 294 294 296 303 304 302 301 305 306 306 310
281 287 290 286 287 293 287 293 301 304 300 296 290 292 291 291 299 301 289 303 309 289 289 287 292 292 286 288 289 289 291 292 292 296 299 305 303 302 301 300 302 303 309
278 280 283 284 284 286 285 291 295 296 293 292 291 292 289 292 296 294 298 300 303 298 291 295 292 288 290 291 289 292 293 291 295 296 300 306 303 302 304 305 306 306 309
273 276 278 281 286 287 290 293 294 295 295 295 294 293 292 295 297 297 296 293 293 292 292 292 288 287 287 292 291 292 291 292 294 297 302 304 302 301 304 306 306 307 311
276 279 283 287 286 289 288 287 286 292 296 295 294 293 293 292 292 291 287 290 293 291 289 288 288 290 293 294 295 295 293 294 295 299 300 300 303 303 302 305 305 310 313
281 273 281 280 283 285 286 288 290 294 295 294 294 294 292 289 283 282 283 289 290 289 289 291 290 292 290 290 291 293 292 292 294 296 297 297 300 300 304 303 304 307 314
274 275 280 281 286 287 290 291 291 289 288 289 289 285 285 281 287 294 295 293 292 291 289 291 295 295 293 291 290 290 289 289 291 292 294 296 297 294 300 304 305 306 313
274 276 279 284 286 288 288 290 292 292 289 285 284 283 289 293 296 295 291 288 289 291 295 299 298 296 294 292 290 287 285 286 288 289 290 294 293 295 297 302 306 306 309
276 278 280 282 285 286 289 288 284 283 285 285 289 295 296 299 296 292 286 287 293 299 301 298 296 294 291 290 290 288 288 291 292 289 290 291 293 296 302 304 305 307 308
278 280 281 283 285 286 285 278 283 289 291 295 300 297 292 292 289 287 291 299 301 298 296 297 296 294 293 290 290 293 297 296 291 290 289 288 290 292 295 297 299 303 307
279 279 279 281 284 283 284 285 284 291 297 294 295 292 290 283 289 295 302 303 303 304 305 303 299 294 291 291 290 292 292 291 291 290 291 292 293 292 292 292 292 296 300
277 277 280 280 279 275 281 280 285 286 289 289 290 290 286 291 298 301 301 303 306 311 313 307 302 299 295 292 291 293 293 292 293 294 296 296 294 291 288 287 286 285 287
275 277 278 281 282 281 284 288 287 282 283 281 283 287 291 295 298 298 299 302 307 313 313 309 304 300 298 298 296 295 293 292 294 298 299 300 298 294 291 287 283 279 276
272 275 276 278 279 281 282 281 281 275 272 279 285 288 289 296 297 302 308 310 304 304 312 318 313 303 298 299 299 296 293 294 298 299 302 301 300 297 293 289 287 279 272
272 273 273 273 275 275 275 273 273 272 276 280 281 282 290 293 299 307 312 310 309 305 304 312 318 316 305 300 300 296 299 301 300 303 304 302 306 306 306 300 291 283 274
Height
5889 5891 5890 5889 5889 5887 5886 5884 5882 5880 5878 5878 5876 5872 5872 5871 5867 5865 5864 5862 5860 5858 5856 5854 5852 5848 5846 5844 5842 5838 5835 5832 5830 5828 5824 5819 5815 5813 5806 5802 5797 5794 5793
5886 5886 5885 5885 5884 5882 5881 5879 5876 5875 5875 5868 5865 5866 5862 5862 5861 5858 5856 5853 5852 5850 5847 5844 5842 5839 5837 5834 5830 5828 5825 5820 5818 5816 5812 5808 5804 5798 5794 5787 5782 5779 5778
5881 5881 5881 5881 5879 5877 5875 5874 5870 5868 5868 5864 5859 5856 5856 5854 5853 5851 5848 5845 5842 5840 5838 5835 5833 5830 5828 5825 5822 5819 5817 5812 5807 5804 5801 5797 5790 5785 5779 5775 5770 5766 5763
5877 5877 5876 5874 5872 5870 5870 5868 5868 5863 5859 5853 5848 5838 5844 5842 5841 5841 5840 5838 5834 5832 5829 5826 5823 5819 5816 5814 5812 5810 5807 5803 5797 5793 5789 5784 5777 5771 5767 5764 5759 5753 5748
5871 5872 5869 5869 5867 5866 5864 5863 5860 5856 5851 5847 5840 5834 5834 5829 5831 5829 5829 5828 5825 5822 5817 5814 5812 5809 5808 5807 5804 5801 5796 5791 5788 5783 5777 5770 5763 5757 5752 5750 5745 5741 5734
5865 5865 5864 5864 5863 5861 5859 5855 5851 5845 5843 5839 5832 5829 5826 5825 5823 5821 5819 5817 5816 5812 5806 5802 5800 5799 5799 5796 5794 5790 5787 5783 5774 5767 5762 5757 5750 5744 5739 5736 5731 5726 5723
5861 5861 5861 5859 5858 5857 5854 5849 5842 5837 5832 5831 5827 5823 5820 5817 5816 5811 5809 5809 5805 5802 5797 5794 5792 5789 5789 5785 5782 5778 5773 5768 5763 5758 5753 5745 5737 5731 5725 5723 5718 5712 5710
5856 5855 5854 5852 5851 5849 5846 5843 5837 5834 5827 5823 5819 5814 5812 5810 5806 5802 5799 5799 5796 5792 5787 5782 5780 5778 5775 5773 5771 5765 5761 5756 5752 5745 5740 5734 5726 5721 5714 5711 5706 5703 5699
5848 5847 5847 5845 5843 5840 5837 5833 5828 5823 5820 5816 5812 5807 5802 5799 5794 5789 5789 5786 5785 5783 5779 5774 5771 5767 5765 5761 5758 5753 5748 5743 5738 5732 5726 5720 5714 5709 5704 5700 5694 5691 5687
5839 5839 5838 5835 5832 5830 5825 5822 5818 5813 5810 5805 5800 5794 5789 5786 5782 5777 5777 5774 5771 5771 5767 5764 5761 5757 5754 5750 5746 5741 5737 5732 5726 5719 5715 5710 5704 5699 5691 5687 5681 5678 5676
5831 5830 5828 5826 5822 5819 5814 5810 5806 5802 5797 5792 5789 5783 5778 5775 5772 5770 5767 5764 5763 5761 5755 5751 5750 5745 5742 5739 5735 5730 5726 5719 5713 5709 5704 5699 5693 5688 5683 5676 5670 5667 5665
5819 5818 5816 5813 5810 5807 5802 5798 5796 5790 5785 5782 5777 5772 5770 5766 5764 5761 5758 5754 5750 5745 5743 5741 5739 5734 5730 5727 5722 5717 5712 5707 5703 5699 5695 5690 5685 5679 5675 5669 5664 5660 5654
5808 5807 5805 5802 5798 5796 5791 5786 5783 5779 5775 5772 5769 5765 5762 5759 5755 5751 5748 5742 5737 5733 5731 5729 5726 5721 5717 5714 5709 5706 5701 5696 5692 5690 5686 5681 5676 5671 5667 5662 5657 5653 5648
5797 5795 5793 5790 5786 5782 5778 5774 5771 5768 5764 5761 5757 5754 5751 5748 5744 5739 5735 5732 5728 5724 5720 5717 5714 5710 5707 5702 5699 5695 5689 5685 5683 5680 5676 5672 5668 5664 5658 5654 5650 5645 5641
5785 5783 5781 5776 5772 5769 5764 5761 5760 5757 5753 5749 5746 5743 5740 5735 5731 5728 5725 5723 5717 5713 5710 5706 5704 5699 5695 5691 5687 5683 5679 5676 5674 5670 5666 5663 5661 5657 5652 5647 5643 5639 5634
5771 5769 5766 5763 5760 5755 5752 5749 5747 5744 5740 5737 5734 5732 5728 5725 5722 5718 5715 5711 5706 5703 5699 5696 5692 5688 5683 5679 5676 5673 5670 5668 5665 5661 5658 5655 5653 5649 5645 5641 5637 5632 5627
5758 5755 5754 5751 5747 5744 5741 5737 5734 5731 5728 5725 5722 5719 5716 5714 5712 5708 5704 5700 5695 5692 5689 5684 5680 5676 5672 5669 5666 5663 5661 5659 5656 5653 5650 5648 5645 5642 5639 5635 5631 5627 5621
5745 5743 5741 5738 5735 5732 5728 5725 5722 5719 5716 5713 5711 5709 5707 5704 5700 5696 5692 5688 5684 5681 5677 5673 5669 5665 5662 5659 5656 5654 5652 5650 5647 5644 5642 5640 5638 5636 5633 5629 5626 5622 5617
5731 5729 5727 5725 5723 5719 5716 5713 5710 5707 5704 5703 5700 5698 5695 5692 5688 5683 5680 5677 5675 5672 5668 5663 5660 5657 5654 5651 5648 5646 5644 5641 5638 5637 5634 5633 5631 5629 5627 5624 5621 5616 5612
5718 5716 5715 5712 5710 5707 5704 5701 5698 5696 5694 5692 5689 5688 5683 5679 5676 5673 5671 5668 5666 5662 5658 5655 5652 5648 5646 5643 5641 5638 5635 5633 5631 5629 5628 5627 5625 5623 5621 5619 5616 5612 5608
5706 5704 5703 5700 5697 5695 5692 5690 5689 5686 5683 5680 5677 5676 5672 5669 5667 5666 5663 5659 5657 5653 5649 5645 5642 5640 5638 5636 5633 5631 5629 5627 5625 5623 5622 5621 5619 5617 5615 5614 5611 5608 5604
5693 5692 5690 5687 5685 5683 5682 5680 5678 5676 5672 5670 5667 5667 5664 5662 5660 5658 5654 5652 5649 5644 5641 5637 5635 5633 5631 5629 5627 5625 5623 5621 5619 5618 5616 5614 5613 5611 5609 5608 5606 5603 5600
5682 5679 5678 5676 5675 5674 5672 5670 5668 5665 5664 5662 5660 5659 5656 5655 5653 5650 5648 5645 5642 5638 5634 5631 5629 5626 5624 5622 5621 5619 5617 5615 5613 5612 5610 5608 5605 5603 5602 5600 5599 5598 5596
5669 5668 5666 5664 5663 5662 5660 5659 5657 5656 5655 5654 5653 5651 5650 5648 5646 5645 5642 5639 5636 5633 5630 5627 5624 5621 5619 5617 5615 5613 5611 5610 5608 5606 5603 5601 5599 5596 5594 5593 5592 5591 5590
5658 5656 5655 5654 5654 5653 5651 5650 5649 5648 5648 5647 5646 5645 5643 5642 5641 5638 5635 5633 5631 5628 5625 5622 5618 5615 5613 5611 5609 5607 5605 5604 5602 5600 5598 5595 5593 5591 5589 5587 5586 5585 5584
5648 5647 5646 5645 5644 5643 5642 5642 5642 5641 5640 5640 5638 5638 5637 5636 5634 5631 5629 5628 5625 5622 5619 5616 5613 5610 5607 5605 5603 5601 5599 5597 5595 5594 5592 5590 5588 5586 5584 5582 5581 5580 5579